sat.trackr.live / text

‹ back to catalog

STARLINK-5608

NORAD 55353 · 2023-013Y

PAYLOAD ACTIVE UNKNOWN

§ Identity

Operator
Country
US
Launch date
2023-01-26
Launch site
AFETR
Launch vehicle
Mass (kg)
RCS (m²)

Purposes: comms

External: N2YO · Heavens-Above · Gunter

§ Orbital elements

Epoch: 2026-09-20T12:36:09.477216Z

Period
94.27 min
Inclination
43.0016°
Eccentricity
0.0001569
Mean motion
15.27563423 rev/d
Perigee alt
482.0 km
Apogee alt
484.2 km
Semi-major
6,861.2 km
B*
-4.0877e-5
RAAN
279.4388°
Arg perigee
269.5457°
Mean anomaly
90.5215°
Rev number
20,151

§ Raw data

STARLINK-56081 55353U 23013Y   26263.52510969 -.00001386  00000+0 -40877-4 0  99952 55353  43.0016 279.4388 0001569 269.5457  90.5215 15.27563423201516

JSON: /api/v1/satellites/55353 · /tle

For live sub-satellite position, see the globe view (requires WebGL).

§ Visibility from observer

Set your observer location to see the next 7 days of passes ≥ 10°. The values pass through the URL so the page stays shareable.

No JS? Fill the form by hand. The geolocation button needs JavaScript.